STARLINK-35258, 65861

Orbit data source: Space-Track

STARLINK-35258, 65861 is a payload satellite owned by SpaceX/Seattle (US) in LEO that was launched on Fri, 03 Oct 2025 UTC via an FALCON 9 launch vehicle from the Air Force Western Test Range (AFWTR). Payload-class satellites include a variety of spacecraft equipped with specific instruments for various scientific and technological missions. These include communications satellites like Starlink; space stations such as the ISS; scientific satellites like the Hubble; Earth observation satellites from companies like Planet Labs, Umbra, and HawkEye 360; GPS; miniature CubeSats for education and research; and military/defense satellites.

Loading next visibility...
Identifier
65861, 2025-223H
Orbit
LEO
Country
Flag of USUS
Related business
Manufacturer
SpaceX/Seattle
Mission
Operational spacecraft
Bus & Motor
STARLINK V2MO, Unknown motor
Mass
575 kg wet, ~530 kg dry
Launch date (UTC)
2025-10-03 (2 weeks ago)
Launch vehicle
FALCON 9
Launch site
Air Force Western Test Range (AFWTR)
Object type
Payload
Rocket body
Debris
Shape & HBR
Unknown
Radar Cross Section
RCS unknown

Expand to show TLE details & history
Last TLE update: 14 hours ago

TLE from 14 hours ago
0 STARLINK-35258
1 65861U 25223H   25290.89287742  .00253887  00000-0  18176-2 0  9993
2 65861  53.1545 241.6574 0008045 250.8008 109.2141 15.72400118  2289
Epoch: 2025-10-17T21:25Z
TLE epoch observation values (Epoch: 2025-10-17T21:25:44.609Z)
Latitude
0.00003°
Longitude
-106.41017°
Altitude
354.741 km
Speed
7.696 km/s
True Right ascension
16h 06m 37s
True Declination
0° 00' 00"
Sunlit
Object was in daylight at epoch
Visualization orbit readout
Latitude
Unknown
Longitude
Unknown
Altitude
Unknown
Speed
Unknown
Apparent Right ascension
Unknown
Apparent Declination
Unknown
Sunlit
N/A
Visualization observer readout
Local Sidereal Time
05:55:48
Azimuth
Unknown
Elevation
Unknown
Doppler factor
Unknown
Orbital elements
Apogee altitude
357.716 km
Perigee altitude
346.887 km
Semi-major axis
6,730.439 km
Eccentricity
0.0008
Inclination
53.1545°
RAAN
241.6574°
Arg. of periapsis
250.8008°
True anomaly
109.30112°
Mean anomaly
109.2141°
Eccentric anomaly
109.25762°
Mean motion
3.93077 °/min
Orbital period
91.59 mins
BSTAR
0.0018176
Loading maneuver chart data...
Computing Atmospheric mass density...
Loading historical data...
Loading historical data...
Loading historical data...
Loading historical data...
Loading historical data...
Loading historical data...
Loading historical data...

Documentation

Showing up to 5 results
|